Location: Unspecified
(42.9300°N, 71.1866°W)
Time: 15:20:09
(UTC-04:00)

GENESIS II - Visible Passes

Search period start: 28 June 2017 00:00
Search period end: 08 July 2017 00:00
Orbit: 498 x 537 km, 64.5° (Epoch: 27 June)

Date Brightness Start Highest point End Pass type
(mag) Time Alt. Az. Time Alt. Az. Time Alt. Az.
28 Jun 4.5 02:53:19 38° S 02:54:37 59° ESE 02:58:35 10° NE visible
28 Jun 6.4 04:29:53 10° W 04:32:41 18° NW 04:35:29 10° N visible
29 Jun 4.4 02:38:35 47° S 02:39:27 62° ESE 02:43:27 10° NE visible
29 Jun 6.4 04:14:50 10° W 04:17:33 17° NW 04:20:18 10° N visible
30 Jun 4.3 02:23:48 57° SSE 02:24:18 64° ESE 02:28:19 10° NE visible
30 Jun 6.5 03:59:46 10° W 04:02:26 17° NW 04:05:06 10° N visible
01 Jul 4.2 02:08:58 66° SE 02:09:09 67° ESE 02:13:10 10° NE visible
01 Jul 6.5 03:44:42 10° W 03:47:18 16° NW 03:49:55 10° N visible
02 Jul 4.3 01:54:06 70° ESE 01:54:06 70° ESE 01:58:01 10° NE visible
02 Jul 6.6 03:29:37 10° W 03:32:10 16° NW 03:34:43 10° N visible
03 Jul 4.4 01:39:10 68° E 01:39:10 68° E 01:42:53 10° NE visible
03 Jul 6.7 03:14:34 10° WNW 03:17:03 16° NW 03:19:31 10° N visible
04 Jul 4.5 01:24:12 64° ENE 01:24:12 64° ENE 01:27:44 10° NE visible
04 Jul 6.7 02:59:30 10° WNW 03:01:55 15° NW 03:04:19 10° N visible
05 Jul 4.6 01:09:11 61° NE 01:09:11 61° NE 01:12:35 10° NE visible
05 Jul 6.8 02:44:27 10° WNW 02:46:47 15° NW 02:49:07 10° N visible
06 Jul 4.7 00:54:07 58° NE 00:54:07 58° NE 00:57:26 10° NE visible
06 Jul 6.9 02:29:23 10° WNW 02:31:39 14° NW 02:33:55 10° N visible
07 Jul 4.7 00:38:59 58° NE 00:38:59 58° NE 00:42:18 10° NE visible
07 Jul 6.9 02:14:20 10° WNW 02:16:32 14° NW 02:18:43 10° N visible
